QPF
0.11 0.11 0.11 0.11 0.10 0.11 0.15 0.13 0.11 0.09 0.09 0.10 0.11 0.13 0.11 0.09 0.09 0.09 0.09 0.11 0.11 0.12 0.12 0.12 0.14 0.13 0.13 0.13 0.11 0.08 0.10 0.12 0.11 0.10 0.09 0.10 0.11 0.10 0.08 0.07 0.08 0.09 0.09
0.11 0.09 0.09 0.12 0.12 0.15 0.16 0.14 0.11 0.09 0.07 0.07 0.08 0.09 0.07 0.07 0.08 0.07 0.07 0.10 0.12 0.12 0.12 0.15 0.16 0.15 0.15 0.14 0.12 0.11 0.16 0.20 0.13 0.11 0.09 0.08 0.09 0.10 0.10 0.07 0.06 0.08 0.10
0.08 0.06 0.08 0.15 0.14 0.16 0.15 0.13 0.11 0.11 0.08 0.07 0.08 0.10 0.07 0.08 0.09 0.11 0.12 0.13 0.13 0.15 0.22 0.24 0.20 0.16 0.14 0.13 0.14 0.14 0.24 0.22 0.14 0.10 0.09 0.06 0.06 0.08 0.12 0.09 0.05 0.05 0.08
0.07 0.06 0.09 0.16 0.18 0.19 0.14 0.13 0.13 0.12 0.10 0.10 0.10 0.10 0.08 0.08 0.10 0.16 0.19 0.17 0.18 0.23 0.29 0.26 0.20 0.17 0.13 0.13 0.22 0.25 0.27 0.17 0.11 0.07 0.05 0.04 0.05 0.05 0.09 0.10 0.06 0.05 0.07
0.07 0.07 0.10 0.16 0.18 0.17 0.14 0.14 0.13 0.11 0.10 0.10 0.09 0.09 0.09 0.10 0.13 0.16 0.24 0.31 0.29 0.30 0.26 0.21 0.19 0.18 0.13 0.17 0.36 0.32 0.24 0.13 0.09 0.06 0.05 0.06 0.06 0.06 0.07 0.11 0.10 0.09 0.11
0.05 0.07 0.12 0.15 0.14 0.15 0.15 0.15 0.13 0.11 0.10 0.09 0.09 0.11 0.10 0.11 0.10 0.13 0.18 0.27 0.27 0.23 0.17 0.15 0.16 0.14 0.14 0.27 0.31 0.19 0.13 0.09 0.07 0.06 0.06 0.07 0.06 0.05 0.05 0.09 0.11 0.09 0.10
0.04 0.05 0.14 0.18 0.14 0.13 0.12 0.12 0.12 0.12 0.11 0.11 0.12 0.12 0.11 0.09 0.09 0.11 0.13 0.21 0.28 0.23 0.15 0.14 0.15 0.11 0.14 0.19 0.13 0.10 0.09 0.08 0.05 0.05 0.06 0.06 0.05 0.04 0.04 0.06 0.10 0.10 0.10
0.09 0.09 0.20 0.19 0.15 0.14 0.12 0.10 0.12 0.12 0.11 0.10 0.11 0.13 0.12 0.09 0.11 0.12 0.14 0.21 0.29 0.34 0.21 0.15 0.14 0.12 0.10 0.11 0.12 0.11 0.09 0.06 0.04 0.04 0.05 0.05 0.05 0.04 0.05 0.06 0.12 0.12 0.09
0.12 0.14 0.21 0.26 0.23 0.19 0.12 0.09 0.10 0.12 0.12 0.10 0.08 0.09 0.09 0.07 0.09 0.10 0.13 0.15 0.21 0.35 0.20 0.15 0.14 0.13 0.11 0.13 0.15 0.13 0.08 0.07 0.04 0.04 0.05 0.05 0.04 0.06 0.05 0.05 0.09 0.15 0.09
0.10 0.12 0.13 0.18 0.19 0.19 0.12 0.10 0.10 0.12 0.11 0.11 0.09 0.08 0.08 0.09 0.09 0.08 0.09 0.12 0.22 0.22 0.13 0.12 0.12 0.12 0.12 0.13 0.13 0.12 0.09 0.07 0.05 0.04 0.04 0.03 0.04 0.05 0.04 0.03 0.08 0.17 0.10
0.06 0.07 0.09 0.09 0.11 0.14 0.12 0.10 0.08 0.10 0.10 0.10 0.09 0.07 0.08 0.11 0.11 0.11 0.11 0.10 0.13 0.11 0.10 0.10 0.09 0.09 0.09 0.11 0.12 0.13 0.11 0.07 0.05 0.04 0.05 0.03 0.04 0.05 0.05 0.05 0.10 0.10 0.05
0.05 0.04 0.04 0.05 0.07 0.08 0.08 0.07 0.08 0.07 0.10 0.10 0.09 0.09 0.09 0.09 0.08 0.07 0.09 0.08 0.10 0.12 0.14 0.14 0.12 0.11 0.09 0.11 0.14 0.15 0.10 0.08 0.06 0.04 0.06 0.06 0.05 0.05 0.07 0.09 0.20 0.13 0.04
0.04 0.05 0.05 0.05 0.06 0.06 0.06 0.05 0.06 0.07 0.09 0.08 0.07 0.07 0.07 0.06 0.05 0.05 0.09 0.09 0.09 0.09 0.12 0.17 0.20 0.13 0.10 0.12 0.17 0.15 0.10 0.10 0.06 0.03 0.04 0.04 0.05 0.08 0.11 0.14 0.17 0.08 0.03
0.03 0.06 0.07 0.07 0.05 0.04 0.04 0.05 0.06 0.07 0.06 0.06 0.05 0.06 0.05 0.05 0.05 0.05 0.08 0.08 0.07 0.07 0.09 0.11 0.12 0.10 0.11 0.16 0.19 0.14 0.12 0.08 0.04 0.04 0.04 0.04 0.05 0.07 0.09 0.13 0.13 0.06 0.03
0.02 0.03 0.04 0.04 0.04 0.05 0.06 0.06 0.07 0.06 0.05 0.04 0.04 0.03 0.02 0.03 0.03 0.05 0.05 0.06 0.06 0.06 0.06 0.06 0.06 0.12 0.19 0.15 0.13 0.11 0.10 0.05 0.03 0.04 0.04 0.05 0.05 0.06 0.10 0.12 0.10 0.07 0.05
0.02 0.02 0.03 0.03 0.04 0.04 0.05 0.06 0.06 0.04 0.04 0.02 0.03 0.03 0.02 0.02 0.03 0.04 0.04 0.05 0.05 0.05 0.05 0.05 0.06 0.10 0.14 0.11 0.09 0.10 0.10 0.05 0.04 0.04 0.04 0.03 0.04 0.05 0.07 0.07 0.09 0.10 0.07
0.02 0.01 0.01 0.02 0.02 0.03 0.05 0.05 0.05 0.03 0.02 0.02 0.03 0.03 0.03 0.03 0.05 0.06 0.05 0.04 0.04 0.06 0.07 0.05 0.05 0.05 0.05 0.05 0.06 0.08 0.07 0.05 0.04 0.04 0.04 0.05 0.04 0.04 0.06 0.07 0.09 0.09 0.08
0.01 0.01 0.01 0.01 0.01 0.03 0.04 0.05 0.03 0.03 0.03 0.03 0.03 0.03 0.03 0.04 0.04 0.06 0.05 0.04 0.05 0.05 0.06 0.06 0.05 0.04 0.04 0.04 0.04 0.06 0.06 0.03 0.02 0.02 0.02 0.03 0.04 0.05 0.07 0.07 0.09 0.09 0.07
0.01 0.01 0.01 0.01 0.02 0.03 0.03 0.03 0.02 0.03 0.03 0.03 0.02 0.03 0.04 0.04 0.04 0.06 0.06 0.05 0.05 0.06 0.06 0.05 0.05 0.05 0.04 0.04 0.03 0.04 0.05 0.04 0.04 0.03 0.02 0.02 0.03 0.04 0.07 0.09 0.09 0.10 0.08
0.01 0.01 0.01 0.03 0.04 0.05 0.04 0.03 0.02 0.02 0.02 0.02 0.03 0.04 0.04 0.04 0.03 0.05 0.04 0.05 0.04 0.05 0.07 0.07 0.06 0.06 0.04 0.04 0.03 0.03 0.04 0.04 0.03 0.02 0.02 0.01 0.02 0.04 0.07 0.10 0.12 0.10 0.05
0.01 0.01 0.01 0.03 0.04 0.05 0.04 0.03 0.03 0.03 0.02 0.02 0.02 0.03 0.03 0.03 0.04 0.04 0.05 0.06 0.06 0.05 0.05 0.05 0.05 0.05 0.04 0.05 0.05 0.05 0.05 0.05 0.02 0.01 0.02 0.03 0.03 0.06 0.08 0.10 0.11 0.10 0.07
0.01 0.01 0.01 0.01 0.03 0.04 0.04 0.05 0.04 0.03 0.03 0.03 0.02 0.02 0.02 0.02 0.05 0.05 0.06 0.06 0.07 0.06 0.05 0.04 0.04 0.04 0.04 0.05 0.07 0.06 0.05 0.05 0.02 0.01 0.01 0.02 0.03 0.04 0.05 0.05 0.06 0.08 0.08
0.01 0.00 0.00 0.01 0.02 0.03 0.05 0.05 0.04 0.03 0.03 0.02 0.03 0.03 0.03 0.02 0.05 0.08 0.07 0.07 0.07 0.07 0.06 0.06 0.04 0.04 0.06 0.06 0.06 0.05 0.05 0.05 0.04 0.02 0.01 0.01 0.03 0.03 0.04 0.06 0.06 0.06 0.06
0.00 0.00 0.01 0.02 0.02 0.03 0.03 0.03 0.04 0.03 0.03 0.03 0.03 0.03 0.02 0.02 0.03 0.06 0.09 0.11 0.12 0.10 0.09 0.07 0.06 0.06 0.08 0.06 0.05 0.04 0.04 0.04 0.05 0.04 0.02 0.02 0.02 0.02 0.02 0.03 0.04 0.05 0.06
0.00 0.00 0.01 0.02 0.02 0.02 0.03 0.02 0.03 0.02 0.02 0.03 0.03 0.03 0.04 0.03 0.03 0.04 0.08 0.12 0.14 0.14 0.13 0.10 0.10 0.09 0.08 0.05 0.04 0.04 0.03 0.03 0.03 0.03 0.03 0.04 0.04 0.02 0.02 0.04 0.05 0.04 0.03
0.00 0.01 0.01 0.01 0.01 0.01 0.02 0.02 0.02 0.02 0.02 0.02 0.03 0.04 0.04 0.04 0.04 0.04 0.05 0.05 0.07 0.09 0.12 0.11 0.10 0.09 0.07 0.05 0.04 0.04 0.03 0.05 0.05 0.05 0.04 0.05 0.05 0.04 0.02 0.04 0.04 0.04 0.03
MSLP
1008.55 1008.19 1008.02 1008.05 1008.27 1008.60 1008.98 1009.34 1009.64 1009.87 1010.06 1010.26 1010.53 1010.90 1011.38 1011.93 1012.50 1013.04 1013.49 1013.82 1014.04 1014.19 1014.32 1014.46 1014.66 1014.92 1015.22 1015.54 1015.82 1016.03 1016.18 1016.25 1016.28 1016.31 1016.36 1016.45 1016.58 1016.73 1016.88 1017.00 1017.08 1017.12 1017.13
1008.70 1008.37 1008.23 1008.30 1008.55 1008.90 1009.29 1009.65 1009.94 1010.15 1010.34 1010.54 1010.82 1011.21 1011.71 1012.27 1012.86 1013.39 1013.82 1014.13 1014.34 1014.47 1014.58 1014.72 1014.93 1015.19 1015.50 1015.82 1016.08 1016.27 1016.38 1016.42 1016.41 1016.41 1016.43 1016.51 1016.64 1016.80 1016.97 1017.11 1017.20 1017.26 1017.27
1008.80 1008.53 1008.45 1008.57 1008.86 1009.26 1009.67 1010.04 1010.33 1010.55 1010.73 1010.93 1011.21 1011.59 1012.07 1012.61 1013.17 1013.67 1014.07 1014.36 1014.54 1014.66 1014.78 1014.94 1015.16 1015.44 1015.76 1016.06 1016.31 1016.47 1016.54 1016.53 1016.49 1016.45 1016.46 1016.53 1016.66 1016.84 1017.03 1017.20 1017.33 1017.40 1017.44
1008.89 1008.69 1008.67 1008.87 1009.22 1009.66 1010.11 1010.51 1010.81 1011.04 1011.22 1011.42 1011.68 1012.03 1012.47 1012.97 1013.47 1013.91 1014.27 1014.52 1014.70 1014.82 1014.96 1015.14 1015.39 1015.69 1016.00 1016.29 1016.51 1016.63 1016.66 1016.61 1016.53 1016.47 1016.47 1016.54 1016.69 1016.90 1017.12 1017.32 1017.49 1017.60 1017.68
1008.98 1008.85 1008.92 1009.19 1009.60 1010.09 1010.58 1011.00 1011.33 1011.57 1011.76 1011.95 1012.19 1012.51 1012.90 1013.34 1013.77 1014.16 1014.47 1014.69 1014.86 1015.00 1015.16 1015.38 1015.64 1015.95 1016.26 1016.52 1016.70 1016.77 1016.75 1016.66 1016.56 1016.49 1016.50 1016.59 1016.77 1017.01 1017.26 1017.50 1017.71 1017.86 1017.97
1009.09 1009.05 1009.19 1009.52 1009.98 1010.51 1011.03 1011.48 1011.83 1012.08 1012.29 1012.48 1012.71 1013.00 1013.35 1013.72 1014.10 1014.43 1014.70 1014.90 1015.07 1015.23 1015.42 1015.66 1015.95 1016.25 1016.54 1016.76 1016.88 1016.90 1016.83 1016.71 1016.60 1016.54 1016.57 1016.70 1016.91 1017.18 1017.47 1017.74 1017.97 1018.14 1018.27
1009.26 1009.28 1009.48 1009.86 1010.35 1010.90 1011.43 1011.88 1012.25 1012.53 1012.75 1012.96 1013.19 1013.47 1013.78 1014.11 1014.44 1014.73 1014.96 1015.16 1015.34 1015.52 1015.74 1016.00 1016.29 1016.58 1016.82 1016.99 1017.05 1017.01 1016.90 1016.76 1016.64 1016.60 1016.67 1016.84 1017.09 1017.39 1017.70 1017.99 1018.22 1018.40 1018.54
1009.49 1009.57 1009.81 1010.20 1010.69 1011.23 1011.75 1012.20 1012.58 1012.87 1013.12 1013.36 1013.61 1013.88 1014.18 1014.49 1014.78 1015.03 1015.25 1015.45 1015.63 1015.84 1016.08 1016.35 1016.63 1016.89 1017.09 1017.19 1017.18 1017.08 1016.93 1016.77 1016.66 1016.65 1016.76 1016.97 1017.27 1017.60 1017.92 1018.20 1018.41 1018.57 1018.69
1009.81 1009.92 1010.18 1010.55 1011.02 1011.52 1012.00 1012.43 1012.80 1013.11 1013.39 1013.66 1013.93 1014.22 1014.52 1014.82 1015.09 1015.32 1015.53 1015.72 1015.91 1016.13 1016.39 1016.66 1016.93 1017.15 1017.29 1017.32 1017.25 1017.09 1016.90 1016.73 1016.63 1016.65 1016.80 1017.06 1017.39 1017.74 1018.06 1018.31 1018.50 1018.62 1018.70
1010.20 1010.33 1010.58 1010.93 1011.34 1011.78 1012.21 1012.60 1012.95 1013.27 1013.57 1013.87 1014.18 1014.49 1014.80 1015.09 1015.34 1015.56 1015.76 1015.94 1016.14 1016.36 1016.62 1016.88 1017.13 1017.31 1017.40 1017.37 1017.23 1017.02 1016.80 1016.61 1016.53 1016.58 1016.76 1017.06 1017.41 1017.77 1018.09 1018.32 1018.46 1018.54 1018.57
1010.63 1010.78 1011.01 1011.32 1011.67 1012.04 1012.40 1012.75 1013.07 1013.38 1013.70 1014.02 1014.35 1014.68 1015.00 1015.29 1015.53 1015.73 1015.91 1016.08 1016.27 1016.49 1016.73 1016.98 1017.20 1017.35 1017.39 1017.31 1017.12 1016.88 1016.62 1016.42 1016.34 1016.41 1016.62 1016.94 1017.32 1017.69 1018.00 1018.22 1018.33 1018.37 1018.36
1011.07 1011.23 1011.45 1011.72 1012.01 1012.30 1012.60 1012.89 1013.18 1013.47 1013.79 1014.12 1014.47 1014.81 1015.13 1015.41 1015.64 1015.82 1015.98 1016.12 1016.30 1016.50 1016.72 1016.95 1017.15 1017.27 1017.27 1017.16 1016.94 1016.66 1016.39 1016.18 1016.09 1016.16 1016.38 1016.72 1017.11 1017.49 1017.80 1018.02 1018.13 1018.15 1018.13
1011.45 1011.63 1011.85 1012.09 1012.33 1012.57 1012.81 1013.04 1013.29 1013.56 1013.86 1014.19 1014.54 1014.89 1015.20 1015.47 1015.68 1015.84 1015.97 1016.09 1016.24 1016.41 1016.61 1016.81 1016.99 1017.08 1017.07 1016.94 1016.71 1016.42 1016.13 1015.91 1015.81 1015.86 1016.07 1016.40 1016.79 1017.19 1017.52 1017.76 1017.89 1017.93 1017.92
1011.73 1011.94 1012.17 1012.40 1012.62 1012.82 1013.01 1013.19 1013.40 1013.63 1013.91 1014.23 1014.57 1014.90 1015.21 1015.47 1015.67 1015.82 1015.92 1016.01 1016.12 1016.26 1016.42 1016.60 1016.75 1016.84 1016.82 1016.70 1016.47 1016.18 1015.89 1015.65 1015.52 1015.55 1015.72 1016.03 1016.40 1016.80 1017.15 1017.43 1017.61 1017.70 1017.73
1011.88 1012.13 1012.38 1012.62 1012.83 1013.02 1013.18 1013.33 1013.49 1013.69 1013.94 1014.23 1014.54 1014.87 1015.17 1015.43 1015.62 1015.75 1015.84 1015.91 1015.98 1016.08 1016.21 1016.36 1016.49 1016.57 1016.56 1016.45 1016.25 1015.98 1015.68 1015.43 1015.26 1015.24 1015.36 1015.61 1015.95 1016.33 1016.70 1017.02 1017.25 1017.42 1017.51
1011.89 1012.18 1012.47 1012.74 1012.97 1013.15 1013.30 1013.43 1013.56 1013.72 1013.92 1014.18 1014.47 1014.78 1015.08 1015.34 1015.54 1015.67 1015.75 1015.80 1015.84 1015.91 1016.00 1016.11 1016.22 1016.30 1016.31 1016.23 1016.06 1015.81 1015.53 1015.26 1015.05 1014.96 1014.99 1015.16 1015.43 1015.77 1016.13 1016.47 1016.76 1016.99 1017.16
1011.80 1012.12 1012.45 1012.76 1013.02 1013.23 1013.38 1013.50 1013.60 1013.72 1013.87 1014.08 1014.34 1014.64 1014.93 1015.20 1015.42 1015.57 1015.65 1015.69 1015.71 1015.74 1015.79 1015.87 1015.96 1016.04 1016.07 1016.03 1015.90 1015.69 1015.42 1015.13 1014.88 1014.70 1014.63 1014.68 1014.85 1015.10 1015.42 1015.75 1016.07 1016.36 1016.59
1011.63 1011.98 1012.35 1012.70 1013.01 1013.25 1013.42 1013.53 1013.61 1013.69 1013.80 1013.96 1014.18 1014.45 1014.74 1015.01 1015.25 1015.42 1015.52 1015.56 1015.57 1015.56 1015.58 1015.62 1015.69 1015.77 1015.82 1015.82 1015.74 1015.57 1015.33 1015.03 1014.72 1014.45 1014.26 1014.17 1014.20 1014.34 1014.57 1014.86 1015.17 1015.47 1015.75
1011.41 1011.79 1012.20 1012.60 1012.95 1013.23 1013.43 1013.55 1013.61 1013.65 1013.71 1013.82 1013.99 1014.22 1014.49 1014.77 1015.02 1015.22 1015.33 1015.38 1015.37 1015.35 1015.33 1015.34 1015.39 1015.47 1015.54 1015.58 1015.55 1015.43 1015.21 1014.90 1014.55 1014.19 1013.88 1013.64 1013.52 1013.52 1013.62 1013.82 1014.08 1014.37 1014.66
1011.17 1011.57 1012.01 1012.45 1012.85 1013.18 1013.42 1013.55 1013.61 1013.62 1013.63 1013.68 1013.79 1013.98 1014.22 1014.48 1014.73 1014.93 1015.06 1015.11 1015.11 1015.06 1015.02 1015.00 1015.03 1015.11 1015.20 1015.28 1015.29 1015.22 1015.03 1014.73 1014.34 1013.91 1013.48 1013.11 1012.83 1012.68 1012.65 1012.74 1012.92 1013.16 1013.42
1010.88 1011.29 1011.77 1012.25 1012.71 1013.09 1013.37 1013.53 1013.59 1013.59 1013.56 1013.55 1013.60 1013.72 1013.91 1014.14 1014.37 1014.56 1014.70 1014.75 1014.74 1014.68 1014.62 1014.59 1014.61 1014.68 1014.78 1014.89 1014.95 1014.92 1014.77 1014.48 1014.08 1013.60 1013.08 1012.60 1012.19 1011.90 1011.75 1011.72 1011.81 1011.98 1012.20
1010.51 1010.95 1011.45 1011.97 1012.47 1012.91 1013.24 1013.45 1013.54 1013.54 1013.48 1013.43 1013.41 1013.46 1013.58 1013.75 1013.95 1014.12 1014.23 1014.28 1014.26 1014.20 1014.14 1014.09 1014.10 1014.17 1014.29 1014.42 1014.51 1014.52 1014.41 1014.15 1013.76 1013.26 1012.70 1012.15 1011.66 1011.28 1011.03 1010.91 1010.92 1011.02 1011.19
1010.04 1010.49 1011.00 1011.56 1012.11 1012.60 1013.00 1013.27 1013.40 1013.43 1013.37 1013.29 1013.22 1013.20 1013.25 1013.35 1013.48 1013.61 1013.70 1013.74 1013.71 1013.65 1013.59 1013.54 1013.55 1013.62 1013.74 1013.88 1014.00 1014.04 1013.96 1013.74 1013.37 1012.89 1012.34 1011.79 1011.28 1010.86 1010.57 1010.40 1010.37 1010.42 1010.54
1009.44 1009.90 1010.42 1010.99 1011.57 1012.12 1012.58 1012.93 1013.14 1013.22 1013.19 1013.11 1013.01 1012.94 1012.92 1012.95 1013.01 1013.09 1013.14 1013.16 1013.14 1013.08 1013.02 1012.98 1012.99 1013.06 1013.18 1013.32 1013.44 1013.50 1013.45 1013.27 1012.95 1012.52 1012.03 1011.52 1011.05 1010.67 1010.40 1010.25 1010.21 1010.25 1010.35
1008.76 1009.20 1009.70 1010.26 1010.86 1011.45 1011.98 1012.42 1012.72 1012.88 1012.92 1012.88 1012.78 1012.68 1012.61 1012.58 1012.58 1012.60 1012.62 1012.62 1012.59 1012.55 1012.50 1012.48 1012.49 1012.55 1012.66 1012.79 1012.90 1012.96 1012.92 1012.78 1012.52 1012.17 1011.76 1011.35 1010.98 1010.68 1010.49 1010.40 1010.41 1010.48 1010.57
1008.06 1008.45 1008.91 1009.44 1010.03 1010.64 1011.23 1011.75 1012.16 1012.43 1012.57 1012.59 1012.53 1012.44 1012.34 1012.27 1012.22 1012.20 1012.19 1012.18 1012.16 1012.13 1012.10 1012.09 1012.10 1012.16 1012.24 1012.34 1012.43 1012.47 1012.44 1012.32 1012.12 1011.85 1011.55 1011.26 1011.01 1010.85 1010.77 1010.79 1010.87 1010.99 1011.11
Thickness
5805 5807 5800 5800 5800 5799 5799 5799 5798 5798 5797 5796 5796 5795 5794 5793 5792 5791 5789 5788 5787 5785 5783 5781 5779 5777 5775 5774 5772 5771 5769 5768 5767 5765 5764 5763 5762 5761 5760 5760 5760 5759 5756
5806 5805 5799 5798 5798 5797 5797 5796 5796 5796 5795 5794 5794 5792 5792 5791 5791 5790 5788 5787 5785 5784 5782 5780 5778 5776 5774 5772 5771 5769 5768 5766 5765 5764 5763 5762 5761 5760 5759 5759 5759 5758 5755
5806 5803 5799 5796 5796 5795 5795 5794 5794 5793 5793 5792 5791 5790 5790 5790 5789 5788 5787 5785 5784 5782 5781 5779 5776 5775 5773 5771 5769 5768 5766 5764 5763 5762 5763 5763 5761 5758 5757 5757 5756 5755 5753
5805 5804 5799 5794 5793 5793 5792 5792 5792 5791 5790 5790 5789 5789 5788 5788 5787 5786 5785 5784 5782 5780 5779 5777 5776 5774 5772 5770 5768 5766 5765 5763 5762 5762 5764 5764 5762 5758 5756 5755 5755 5753 5752
5804 5802 5795 5793 5792 5791 5791 5790 5790 5789 5788 5788 5788 5787 5786 5786 5785 5784 5784 5783 5780 5778 5777 5776 5775 5773 5770 5769 5767 5765 5763 5762 5762 5763 5763 5762 5760 5757 5755 5754 5753 5752 5751
5803 5801 5795 5791 5790 5790 5789 5788 5788 5787 5787 5786 5786 5785 5785 5784 5783 5782 5782 5781 5779 5777 5775 5774 5773 5772 5769 5767 5765 5764 5762 5762 5763 5764 5762 5761 5760 5756 5755 5754 5753 5752 5751
5803 5801 5795 5789 5789 5788 5787 5787 5786 5786 5785 5785 5785 5784 5783 5783 5781 5781 5780 5779 5777 5775 5774 5773 5772 5770 5768 5766 5764 5763 5762 5762 5764 5764 5762 5761 5759 5756 5754 5753 5752 5751 5751
5801 5799 5795 5789 5788 5787 5786 5786 5785 5784 5784 5784 5783 5782 5782 5781 5780 5780 5779 5777 5776 5774 5773 5772 5770 5769 5767 5765 5763 5762 5761 5761 5763 5764 5763 5761 5757 5755 5754 5753 5752 5751 5750
5801 5799 5797 5795 5790 5787 5786 5785 5784 5783 5783 5782 5782 5781 5781 5780 5779 5778 5777 5776 5775 5773 5772 5771 5769 5768 5766 5764 5762 5761 5761 5761 5764 5764 5763 5761 5757 5755 5754 5753 5752 5751 5750
5799 5798 5797 5797 5794 5792 5789 5785 5783 5783 5782 5781 5781 5780 5780 5780 5779 5778 5778 5775 5774 5772 5771 5770 5768 5766 5764 5763 5762 5761 5761 5762 5765 5765 5764 5760 5757 5755 5753 5752 5752 5751 5749
5795 5797 5797 5797 5795 5794 5792 5787 5785 5783 5781 5781 5781 5780 5780 5782 5781 5779 5777 5775 5773 5771 5770 5768 5767 5765 5764 5763 5761 5761 5762 5765 5765 5764 5762 5758 5756 5754 5753 5752 5751 5750 5749
5793 5795 5796 5796 5795 5794 5792 5789 5787 5787 5784 5783 5782 5782 5781 5780 5779 5779 5775 5774 5772 5771 5769 5767 5766 5765 5764 5765 5763 5762 5764 5765 5765 5763 5760 5756 5755 5754 5753 5752 5751 5749 5748
5796 5795 5796 5795 5793 5793 5791 5790 5788 5787 5785 5784 5782 5781 5780 5780 5780 5779 5777 5775 5773 5771 5771 5768 5767 5768 5767 5765 5764 5764 5764 5765 5764 5763 5759 5755 5754 5753 5752 5751 5750 5749 5747
5796 5795 5796 5794 5792 5790 5790 5790 5788 5787 5786 5785 5782 5781 5781 5780 5779 5777 5776 5775 5774 5772 5770 5769 5768 5767 5765 5764 5763 5763 5763 5764 5763 5761 5758 5755 5753 5753 5752 5751 5749 5748 5748
5796 5795 5794 5793 5790 5789 5788 5788 5788 5787 5786 5784 5781 5781 5780 5781 5779 5777 5775 5773 5773 5772 5771 5769 5768 5766 5765 5764 5764 5763 5763 5762 5762 5761 5759 5755 5753 5753 5752 5751 5749 5748 5747
5796 5795 5794 5792 5791 5789 5788 5787 5787 5788 5785 5785 5783 5781 5780 5780 5778 5776 5775 5773 5772 5772 5771 5769 5768 5766 5766 5765 5764 5763 5763 5763 5761 5760 5760 5757 5754 5753 5752 5751 5750 5748 5747
5798 5797 5795 5794 5792 5790 5789 5789 5789 5788 5787 5785 5783 5780 5779 5779 5776 5774 5774 5773 5772 5771 5770 5769 5768 5767 5766 5765 5764 5764 5763 5762 5761 5760 5760 5759 5757 5754 5752 5751 5749 5748 5746
5801 5798 5796 5798 5794 5791 5789 5788 5789 5788 5786 5784 5783 5781 5778 5777 5775 5774 5774 5773 5771 5771 5770 5768 5768 5766 5765 5765 5764 5763 5763 5762 5760 5759 5760 5758 5758 5757 5753 5751 5749 5748 5746
5803 5800 5797 5796 5794 5792 5790 5789 5788 5787 5785 5784 5783 5781 5778 5776 5775 5775 5773 5772 5771 5771 5769 5769 5768 5766 5764 5763 5764 5763 5764 5763 5761 5761 5760 5759 5757 5756 5755 5751 5749 5748 5747
5804 5801 5799 5796 5794 5793 5792 5790 5788 5787 5786 5784 5783 5780 5778 5777 5775 5774 5774 5771 5772 5771 5768 5766 5764 5763 5763 5762 5764 5763 5763 5763 5762 5761 5760 5760 5758 5756 5755 5753 5751 5749 5747
5805 5802 5799 5797 5795 5793 5791 5790 5787 5786 5785 5784 5783 5780 5778 5776 5775 5773 5774 5771 5770 5770 5767 5766 5764 5762 5761 5762 5760 5759 5761 5763 5762 5761 5760 5759 5758 5756 5754 5752 5751 5750 5749
5806 5803 5800 5797 5796 5794 5792 5790 5788 5786 5786 5785 5783 5779 5777 5776 5775 5775 5772 5772 5770 5767 5765 5764 5762 5761 5761 5761 5757 5755 5753 5755 5757 5761 5759 5757 5756 5756 5754 5753 5750 5749 5748
5808 5805 5803 5799 5797 5794 5793 5791 5789 5785 5784 5783 5780 5779 5777 5776 5774 5773 5772 5771 5769 5768 5766 5763 5761 5758 5757 5759 5758 5753 5749 5747 5751 5756 5755 5755 5753 5753 5753 5752 5750 5748 5747
5811 5809 5805 5800 5797 5794 5792 5790 5787 5783 5781 5780 5780 5779 5777 5775 5773 5772 5771 5769 5767 5768 5764 5763 5763 5760 5756 5755 5756 5754 5753 5752 5746 5746 5751 5753 5752 5751 5751 5751 5750 5747 5745
5814 5811 5807 5802 5797 5795 5793 5790 5786 5784 5783 5783 5781 5777 5775 5775 5773 5772 5769 5768 5766 5766 5764 5762 5761 5759 5758 5755 5754 5753 5751 5749 5749 5743 5741 5744 5747 5749 5749 5748 5747 5746 5744
5815 5812 5808 5801 5797 5795 5792 5790 5786 5783 5781 5779 5777 5776 5775 5776 5774 5772 5769 5767 5766 5765 5763 5761 5759 5758 5756 5753 5752 5752 5750 5748 5746 5744 5740 5739 5740 5743 5745 5744 5744 5743 5742